Terminal Aerodrome Forecast
Issued by NWS

Home | Current Version | Previous Version | Text Only | Print | Product List | Glossary On
Versions: 1 2 3 4 5 6 7 8 9 10 11 12 13 14 15 16 17 18 19 20 21 22 23 24 25 26 27 28 29 30 31 32 33 34 35 36 37 38 39 40 41 42 43 44 45 46 47 48 49 50
000
FTUS44 KBMX 041508 AAB
TAFASN
TAF AMD
KASN 041508Z 0415/0512 24005KT P6SM VCSH BKN050
     FM042300 24010KT 4SM SHRA VCTS OVC050CB
     FM051100 23003KT 6SM BR VCTS SCT015CB OVC025=

USA.gov is the U.S. government's official web portal to all federal, state and local government web resources and services.